Simultaneous Nadir Overpasses (SNOs) Predictions

Prediction of SNOs between GOES-17 and LANDSAT-8 Satellite Orbit:

Table of predicted SNOs for the next 14.0 days since TLE Epoch: 11/1/2024
Index Date Time (GOES-17) GOES-17 Lat,Lon LANDSAT-8 Lat,Lon Distance(km) Time Diff (sec)
1 11/03/2024 17:00:29 0.02,-104.71 -0.58,-101.79 331.71 80
2 11/04/2024 05:21:55 -0.02,-104.66 -0.51,-106.99 264.46 80
3 11/06/2024 05:07:09 -0.03,-104.65 0.09,-104.05 67.93 80
4 11/08/2024 04:55:04 -0.04,-104.63 0.69,-101.11 399.81 80
5 11/08/2024 17:16:22 0.04,-104.67 0.37,-106.28 183.20 80
6 11/10/2024 17:06:58 0.04,-104.66 -0.21,-103.35 148.33 80
7 11/11/2024 05:28:25 -0.04,-104.62 -0.86,-108.56 447.28 80
8 11/12/2024 16:54:56 0.05,-104.65 -0.86,-100.44 479.48 80
9 11/13/2024 05:16:22 -0.04,-104.61 -0.28,-105.63 116.38 80
10 11/15/2024 05:01:41 -0.04,-104.60 0.36,-102.72 213.86 80
11 11/15/2024 17:23:00 0.04,-104.63 0.70,-107.89 370.63 80
